Weather History for Fulton, NY

Change the Weather History Date:

Thursday, July 25, 2013

  Actual Average (KSYR) Record (KSYR)
Temperature  
Mean Temperature 60 °F 72 °F  
Max Temperature 75 °F 82 °F 95 °F (1941)
Min Temperature 46 °F 61 °F 45 °F (1976)
Degree Days  
Heating Degree Days 4 0  
Month to date heating degree days 2  
Since 1 June heating degree days 63  
Since 1 July heating degree days 2  
Cooling Degree Days 0 7  
Month to date cooling degree days 167  
Year to date cooling degree days 310  
Since 1 June cooling degree days 280  
Growing Degree Days 10 (Base 50)    
Moisture  
Dew Point 49 °F    
Average Humidity 65    
Maximum Humidity 93    
Minimum Humidity 41    
Precipitation  
Precipitation 0.00 in 0.12 in 0.82 in (1962)
Month to date precipitation 3.06  
Year to date precipitation 20.30  
Snow  
Snow 0.00 in 0.00 in 0.00 in (2002)
Month to date snowfall 0.0  
Since 1 June snowfall 0.0  
Since 1 July snowfall 0.0  
Snow Depth -    
Sea Level Pressure  
Sea Level Pressure 30.09 in    
Wind  
Wind Speed 3 mph (NNE)    
Max Wind Speed 12 mph    
Max Gust Speed 22 mph    
Visibility 10 miles    
Events      
T = Trace of Precipitation, MM = Missing Value Source: NWS Daily Summary

Daily Weather History Graph

Daily Weather History Graph

Search for Another Location

Airport:

Trip Planner

Search our weather history database for the weather conditions in past years. The results will help you decide how hot, cold, wet, or windy it might be!

Date:

Astronomy

Jul. 25, 2013 Rise Set
Actual Time 5:48 AM EDT 8:35 PM EDT
Civil Twilight 5:15 AM EDT 9:08 PM EDT
Nautical Twilight 4:33 AM EDT 9:50 PM EDT
Astronomical Twilight 3:44 AM EDT 10:38 PM EDT
Moon 10:05 PM EDT (7/25) 9:23 AM EDT (7/25)
Length of Visible Light 15h 53m
Length of Day
14h 46m
Waning Gibbous, 88% of the Moon is Illuminated
Jul 25
Waning Gibbous
Jul 29
Last Quarter
Aug 6
New
Aug 14
First Quarter
Aug 20
Full

Hourly Weather History & Observations

Time (EDT) Temp. Dew Point Humidity Pressure Visibility Wind Dir Wind Speed Gust Speed Precip Events Conditions
12:54 AM 50.0 °F 48.0 °F 93% 30.06 in 10.0 mi Calm Calm - N/A   Clear
1:54 AM 50.0 °F 46.9 °F 89% 30.06 in 10.0 mi Calm Calm - N/A   Clear
2:54 AM 48.9 °F 46.0 °F 90% 30.06 in 10.0 mi Calm Calm - N/A   Clear
3:54 AM 48.0 °F 46.0 °F 93% 30.06 in 9.0 mi Calm Calm - N/A   Clear
4:54 AM 46.9 °F 44.1 °F 90% 30.06 in 7.0 mi Calm Calm - N/A   Clear
5:54 AM 46.9 °F 45.0 °F 93% 30.08 in 10.0 mi Calm Calm - N/A   Clear
6:54 AM 51.1 °F 48.9 °F 92% 30.09 in 10.0 mi Calm Calm - N/A   Clear
7:54 AM 57.0 °F 54.0 °F 89% 30.11 in 10.0 mi Calm Calm - N/A   Clear
8:54 AM 62.1 °F 53.1 °F 72% 30.11 in 10.0 mi ENE 3.5 mph - N/A   Clear
9:54 AM 66.9 °F 48.9 °F 52% 30.13 in 10.0 mi Calm Calm - N/A   Clear
10:54 AM 70.0 °F 48.0 °F 46% 30.12 in 10.0 mi ENE 6.9 mph - N/A   Clear
11:54 AM 71.1 °F 48.9 °F 45% 30.13 in 10.0 mi NNE 5.8 mph 17.3 mph N/A   Scattered Clouds
12:54 PM 73.0 °F 50.0 °F 44% 30.12 in 10.0 mi NNW 9.2 mph - N/A   Partly Cloudy
1:54 PM 73.9 °F 50.0 °F 43% 30.11 in 10.0 mi NNE 11.5 mph 21.9 mph N/A   Partly Cloudy
2:54 PM 75.0 °F 50.0 °F 41% 30.10 in 10.0 mi Variable 5.8 mph - N/A   Clear
3:54 PM 73.9 °F 50.0 °F 43% 30.09 in 10.0 mi NNW 9.2 mph - N/A   Clear
4:54 PM 75.0 °F 50.0 °F 41% 30.08 in 10.0 mi NNW 10.4 mph - N/A   Clear
5:54 PM 73.9 °F 51.1 °F 45% 30.09 in 10.0 mi North 6.9 mph - N/A   Clear
6:54 PM 73.0 °F 50.0 °F 44% 30.09 in 10.0 mi North 8.1 mph - N/A   Clear
7:54 PM 70.0 °F 51.1 °F 51% 30.09 in 10.0 mi North 4.6 mph - N/A   Clear
8:54 PM 62.1 °F 51.1 °F 67% 30.09 in 10.0 mi North 5.8 mph - N/A   Clear
9:54 PM 61.0 °F 50.0 °F 67% 30.10 in 10.0 mi NNE 4.6 mph - N/A   Clear
10:54 PM 62.1 °F 48.9 °F 62% 30.10 in 10.0 mi NE 5.8 mph - N/A   Clear
11:54 PM 55.9 °F 50.0 °F 80% 30.10 in 10.0 mi Calm Calm - N/A   Clear